Location: Hackberry
(29.5783°N, 96.8797°W)
Time: 13:32:57
(UTC+00:00)

Vanguard 2 Rocket - Pass Details

Date: 21 November 2024
Orbit: 554 x 3296 km, 32.9° (Epoch: 30 November)

Event Time Altitude Azimuth Distance (km) Brightness Sun altitude
Exits shadow 09:34:05 39° 146° (SE) 2,148 8.8 -43.9°
Maximum altitude 09:34:33 39° 140° (SE) 2,182 8.8 -43.8°
Drops below altitude 10° 09:46:05 10° 77° (ENE) 4,946 11.2 -41.2°
Sets 09:51:14 0° 72° (ENE) 6,388 12.0 -40.1°
